When you browse on this site, cookies collect data to enhance your experience and personalize the content and advertising you see.
Visit our Privacy Policy to learn more. By continuing to use the site, you agree to this use of cookies and data.
  • In Hungary
  • List of Countries
  • For 7 days
  • Water Temperature
  • Satellite Maps
  • Weather Map
  • News
  • Weather Widgets
  • user-avatar
    Login

    Hourly Weather Ancona

    Today, 15 December, Saturday

    Time Temperature Precipitation Wind Pressure Humidity
    00:00 +3°C° 0.1 mm 5 mps 755 mmHg 80%
    01:00 +3°C° 0 mm 5 mps 755 mmHg 80%
    02:00 +3°C° 0 mm 6 mps 755 mmHg 80%
    03:00 +3°C° 0 mm 6 mps 756 mmHg 80%
    04:00 +3°C° 0 mm 6 mps 756 mmHg 80%
    05:00 +3°C° 0 mm 6 mps 756 mmHg 80%
    06:00 +3°C° 0 mm 6 mps 756 mmHg 79%
    07:00 +2°C° 0 mm 6 mps 756 mmHg 80%
    08:00 +3°C° 0 mm 7 mps 757 mmHg 77%
    09:00 +3°C° 0 mm 7 mps 757 mmHg 74%
    10:00 +4°C° 0 mm 8 mps 758 mmHg 71%
    11:00 +4°C° 0 mm 8 mps 758 mmHg 70%
    12:00 +4°C° 0 mm 8 mps 758 mmHg 68%
    13:00 +3°C° 0 mm 9 mps 758 mmHg 68%
    14:00 +4°C° 0 mm 8 mps 758 mmHg 68%
    15:00 +2°C° 0 mm 8 mps 758 mmHg 69%
    16:00 +2°C° 0 mm 8 mps 759 mmHg 69%
    17:00 +2°C° 0 mm 8 mps 759 mmHg 71%
    18:00 +3°C° 0 mm 7 mps 759 mmHg 72%
    19:00 +2°C° 0 mm 7 mps 760 mmHg 74%
    20:00 +2°C° 0 mm 6 mps 760 mmHg 73%
    21:00 +2°C° 0 mm 6 mps 760 mmHg 72%
    22:00 +2°C° 0 mm 5 mps 760 mmHg 72%
    23:00 +2°C° 0 mm 5 mps 760 mmHg 72%

    Tomorrow, 16 December, Sunday

    Time Temperature Precipitation Wind Pressure Humidity
    00:00 +3°C° 0 mm 4 mps 760 mmHg 73%
    01:00 +3°C° 0 mm 4 mps 760 mmHg 73%
    02:00 +2°C° 0 mm 3 mps 760 mmHg 74%
    03:00 +2°C° 0 mm 3 mps 760 mmHg 74%
    04:00 +2°C° 0 mm 3 mps 760 mmHg 75%
    05:00 +2°C° 0 mm 3 mps 760 mmHg 74%
    06:00 +3°C° 0 mm 2 mps 760 mmHg 73%
    07:00 +3°C° 0 mm 2 mps 761 mmHg 73%
    08:00 +4°C° 0 mm 2 mps 761 mmHg 68%
    09:00 +5°C° 0 mm 2 mps 761 mmHg 64%
    10:00 +6°C° 0 mm 2 mps 761 mmHg 59%
    11:00 +7°C° 0 mm 2 mps 761 mmHg 55%
    12:00 +9°C° 0 mm 1 mps 760 mmHg 51%
    13:00 +10°C° 0 mm 1 mps 760 mmHg 47%
    14:00 +8°C° 0 mm 2 mps 760 mmHg 52%
    15:00 +8°C° 0 mm 2 mps 760 mmHg 56%
    16:00 +7°C° 0 mm 2 mps 760 mmHg 61%
    17:00 +7°C° 0 mm 3 mps 760 mmHg 62%
    18:00 +5°C° 0 mm 3 mps 760 mmHg 64%
    19:00 +5°C° 0 mm 4 mps 760 mmHg 65%
    20:00 +5°C° 0.3 mm 4 mps 760 mmHg 68%
    21:00 +5°C° 0.3 mm 4 mps 759 mmHg 70%
    22:00 +5°C° 0.3 mm 4 mps 759 mmHg 72%
    23:00 +5°C° 1.4 mm 4 mps 758 mmHg 77%

    Day after tomorrow, 17 December, Monday

    Time Temperature Precipitation Wind Pressure Humidity
    00:00 +5°C° 1.4 mm 4 mps 758 mmHg 82%
    01:00 +5°C° 1.4 mm 4 mps 757 mmHg 88%
    02:00 +5°C° 4.2 mm 4 mps 757 mmHg 91%
    03:00 +4°C° 4.2 mm 4 mps 756 mmHg 94%
    04:00 +4°C° 4.2 mm 4 mps 756 mmHg 97%
    05:00 +5°C° 1.4 mm 5 mps 756 mmHg 96%
    06:00 +5°C° 1.4 mm 5 mps 756 mmHg 95%
    07:00 +4°C° 1.4 mm 6 mps 756 mmHg 93%
    08:00 +4°C° 1.9 mm 6 mps 756 mmHg 93%
    09:00 +6°C° 1.9 mm 5 mps 756 mmHg 94%
    10:00 +6°C° 1.9 mm 5 mps 757 mmHg 94%
    11:00 +6°C° 0.8 mm 5 mps 757 mmHg 93%
    12:00 +6°C° 0.8 mm 5 mps 757 mmHg 92%
    13:00 +6°C° 0.8 mm 4 mps 757 mmHg 91%
    14:00 +6°C° 0.6 mm 5 mps 757 mmHg 90%
    15:00 +5°C° 0.6 mm 6 mps 757 mmHg 90%
    16:00 +5°C° 0.6 mm 7 mps 758 mmHg 90%
    17:00 +5°C° 0.4 mm 8 mps 758 mmHg 87%
    18:00 +5°C° 0.4 mm 9 mps 759 mmHg 85%
    19:00 +5°C° 0.4 mm 9 mps 759 mmHg 83%
    20:00 +5°C° 0.2 mm 9 mps 760 mmHg 81%
    21:00 +5°C° 0.2 mm 9 mps 761 mmHg 79%
    22:00 +5°C° 0.2 mm 9 mps 761 mmHg 77%
    23:00 +5°C° 0 mm 9 mps 762 mmHg 77%

    18 December, Tuesday

    Time Temperature Precipitation Wind Pressure Humidity
    00:00 +5°C° 0 mm 9 mps 762 mmHg 76%
    01:00 +5°C° 0 mm 9 mps 763 mmHg 76%
    02:00 +5°C° 0 mm 9 mps 763 mmHg 76%
    03:00 +5°C° 0 mm 8 mps 763 mmHg 77%
    04:00 +5°C° 0 mm 8 mps 764 mmHg 77%
    05:00 +5°C° 0 mm 8 mps 764 mmHg 79%
    06:00 +5°C° 0 mm 7 mps 765 mmHg 81%
    07:00 +4°C° 0 mm 7 mps 765 mmHg 83%
    08:00 +5°C° 0 mm 6 mps 765 mmHg 82%
    09:00 +5°C° 0 mm 6 mps 766 mmHg 82%
    10:00 +7°C° 0 mm 6 mps 766 mmHg 81%
    11:00 +8°C° 0 mm 6 mps 766 mmHg 79%
    12:00 +8°C° 0 mm 6 mps 766 mmHg 78%
    13:00 +8°C° 0 mm 6 mps 766 mmHg 76%
    14:00 +8°C° 0 mm 5 mps 766 mmHg 77%
    15:00 +8°C° 0 mm 5 mps 766 mmHg 79%
    16:00 +7°C° 0 mm 4 mps 765 mmHg 80%
    17:00 +6°C° 0 mm 4 mps 766 mmHg 81%
    18:00 +6°C° 0 mm 4 mps 766 mmHg 82%
    19:00 +5°C° 0 mm 4 mps 766 mmHg 83%
    20:00 +5°C° 0 mm 4 mps 766 mmHg 82%
    21:00 +5°C° 0 mm 4 mps 766 mmHg 81%
    22:00 +5°C° 0 mm 4 mps 765 mmHg 80%
    23:00 +4°C° 0 mm 3 mps 765 mmHg 78%

    19 December, Wednesday

    Time Temperature Precipitation Wind Pressure Humidity
    00:00 +4°C° 0 mm 3 mps 765 mmHg 77%
    01:00 +4°C° 0 mm 3 mps 765 mmHg 75%
    02:00 +4°C° 0 mm 3 mps 765 mmHg 74%
    03:00 +4°C° 0 mm 3 mps 764 mmHg 73%
    04:00 +4°C° 0 mm 3 mps 764 mmHg 72%
    05:00 +4°C° 0 mm 3 mps 764 mmHg 71%
    06:00 +4°C° 0 mm 3 mps 764 mmHg 69%
    07:00 +4°C° 0 mm 3 mps 764 mmHg 68%
    08:00 +6°C° 0 mm 2 mps 764 mmHg 66%
    09:00 +7°C° 0 mm 2 mps 764 mmHg 64%
    10:00 +8°C° 0 mm 2 mps 765 mmHg 62%
    11:00 +9°C° 0 mm 2 mps 764 mmHg 62%
    12:00 +9°C° 0 mm 2 mps 764 mmHg 62%
    13:00 +11°C° 0 mm 1 mps 764 mmHg 62%
    14:00 +10°C° 0 mm 1 mps 764 mmHg 65%
    15:00 +10°C° 0 mm 1 mps 763 mmHg 68%
    16:00 +9°C° 0 mm 1 mps 763 mmHg 72%
    17:00 +9°C° 0 mm 1 mps 763 mmHg 73%
    18:00 +8°C° 0 mm 1 mps 763 mmHg 74%
    19:00 +8°C° 0 mm 1 mps 763 mmHg 75%
    20:00 +8°C° 0 mm 1 mps 763 mmHg 74%
    21:00 +7°C° 0 mm 2 mps 763 mmHg 74%
    22:00 +6°C° 0 mm 2 mps 763 mmHg 73%
    23:00 +6°C° 0 mm 2 mps 763 mmHg 72%

    20 December, Thursday

    Time Temperature Precipitation Wind Pressure Humidity
    00:00 +7°C° 0 mm 3 mps 763 mmHg 70%
    01:00 +6°C° 0 mm 4 mps 762 mmHg 69%
    02:00 +6°C° 0 mm 4 mps 762 mmHg 67%
    03:00 +6°C° 0 mm 4 mps 762 mmHg 65%
    04:00 +6°C° 0 mm 4 mps 761 mmHg 63%
    05:00 +6°C° 0 mm 4 mps 761 mmHg 62%
    06:00 +6°C° 0 mm 5 mps 761 mmHg 60%
    07:00 +7°C° 0 mm 5 mps 761 mmHg 59%
    08:00 +7°C° 0.1 mm 5 mps 760 mmHg 61%
    09:00 +7°C° 0.1 mm 5 mps 760 mmHg 62%
    10:00 +8°C° 0.1 mm 5 mps 760 mmHg 64%
    11:00 +8°C° 0.5 mm 6 mps 759 mmHg 68%
    12:00 +8°C° 0.5 mm 6 mps 758 mmHg 72%
    13:00 +8°C° 0.5 mm 6 mps 758 mmHg 77%
    14:00 +7°C° 0.9 mm 5 mps 758 mmHg 79%
    15:00 +7°C° 0.9 mm 4 mps 757 mmHg 81%
    16:00 +7°C° 0.9 mm 3 mps 757 mmHg 83%
    17:00 +7°C° 0.1 mm 3 mps 757 mmHg 84%
    18:00 +6°C° 0.1 mm 4 mps 757 mmHg 85%
    19:00 +6°C° 0.1 mm 4 mps 757 mmHg 86%
    20:00 +6°C° 0.1 mm 5 mps 758 mmHg 87%
    21:00 +6°C° 0.1 mm 5 mps 758 mmHg 88%
    22:00 +5°C° 0.1 mm 6 mps 758 mmHg 90%
    23:00 +5°C° 0 mm 6 mps 759 mmHg 89%
    Show more